This is the latest recevied weather packets stored in our database for station/object K7KAR-2. If no packets are shown the sender has not sent any weather packets the latest 10 day(s).
| Time | Temp. | Humidity | Pressure | Rain* | Wind** | Luminosity | Snow |
|---|---|---|---|---|---|---|---|
| 1778255367 | 16.67° C | 30% | 1013.7 hPa | 0 mm | - | 759 W/m² | - |
| 1778255065 | 16.11° C | 30% | 1013.6 hPa | 0 mm | - | 825 W/m² | - |
| 1778254761 | 15° C | 34% | 1013.7 hPa | 0 mm | - | 629 W/m² | - |
| 1778254458 | 15° C | 35% | 1013.7 hPa | 0 mm | - | 284 W/m² | - |
| 1778254154 | 15° C | 36% | 1013.8 hPa | 0 mm | - | 753 W/m² | - |
| 1778253851 | 15° C | 38% | 1014 hPa | 0 mm | - | 804 W/m² | - |
| 1778253548 | 15° C | 37% | 1013.7 hPa | 0 mm | - | 794 W/m² | - |
| 1778253244 | 14.44° C | 39% | 1013.8 hPa | 0 mm | - | 754 W/m² | - |
| 1778252940 | 13.89° C | 39% | 1013.9 hPa | 0 mm | - | 547 W/m² | - |
| 1778252637 | 14.44° C | 39% | 1013.9 hPa | 0 mm | - | 625 W/m² | - |
| 1778252334 | 13.89° C | 40% | 1013.8 hPa | 0 mm | - | 639 W/m² | - |
| 1778252030 | 13.33° C | 41% | 1013.6 hPa | 0 mm | - | 588 W/m² | - |
| 1778251727 | 12.78° C | 44% | 1013.8 hPa | 0 mm | - | 549 W/m² | - |
| 1778251425 | 12.78° C | 46% | 1013.8 hPa | 0 mm | - | 529 W/m² | - |
| 1778251122 | 11.67° C | 46% | 1014 hPa | 0 mm | - | 507 W/m² | - |
| 1778250819 | 11.67° C | 47% | 1014 hPa | 0 mm | - | 479 W/m² | - |
| 1778250516 | 11.11° C | 48% | 1014.1 hPa | 0 mm | - | 435 W/m² | - |
| 1778250213 | 11.11° C | 50% | 1014 hPa | 0 mm | - | 356 W/m² | - |
| 1778249909 | 10.56° C | 50% | 1014.1 hPa | 0 mm | - | 356 W/m² | - |
| 1778249606 | 10.56° C | 51% | 1014.4 hPa | 0 mm | - | 360 W/m² | - |
| 1778249304 | 10° C | 52% | 1014.1 hPa | 0 mm | - | 356 W/m² | - |
| 1778249000 | 10° C | 53% | 1014.5 hPa | 0 mm | - | 347 W/m² | - |
| 1778248696 | 9.44° C | 54% | 1014.3 hPa | 0 mm | - | 336 W/m² | - |
| 1778248393 | 8.89° C | 55% | 1014.3 hPa | 0 mm | - | 281 W/m² | - |
| 1778248089 | 8.89° C | 56% | 1014.3 hPa | 0 mm | - | 275 W/m² | - |
* Rain latest hour (hover to see other rain measurements)
** Current wind speed in m/s (hover to see current wind gust speed)